www.pogodaiklimat.ru

Погода и климат >> Архив погоды >> Пакистан >> Джелам


ПОГОДА в Джеламе

  • Прогноз погоды в Джеламе
  • Монитор погоды в Джеламе

АРХИВ ПОГОДЫ в Джеламе

Время (UTC), дата Ветер
(напр.,м/с)
 
Видим.   Явления Облачность Т
(С)
Тd
(С)
f
(%)
Тe
(С)
Тes
(С)
Комфортность P
(гПа)
Po
(гПа)
Тmin
(С)
Tmax
(С)
R
(мм)
R24
(мм)
S
(см)
18 16.01 штиль 0 2000 м дым ясно +7.5 +4.0 78 +7 +7 1020.2 991.8
21 16.01 штиль 0 1000 м дымка ясно +6.0 +3.6 85 +5 +5 1019.6 1020.0
00 17.01 штиль 0 1000 м дымка ясно +4.5 +2.0 84 +4 +4 1019.0 990.4
03 17.01 штиль 0 1000 м дымка ясно +3.0 +0.3 82 +2 +3 1019.7 990.9 +2.5
06 17.01 СЗ 1 2000 м мгла ясно +15.0 +4.3 49 +16 +25 1020.0 992.3
09 17.01 З 1 4000 м мгла ясно +21.0 +4.8 35 +23 +30 комфорт 1016.5 1000.0
12 17.01 З 1 4000 м мгла ясно +20.0 +4.6 36 +22 +22 комфорт 1015.1 988.9 +22.1
15 17.01 штиль 0 4000 м дым 3/0
[As op]
+12.0 +4.3 59 +12 +12 1016.2 988.5
18 17.01 штиль 0 4000 м дым 6/0
[]
+8.5 +3.9 73 +8 +8 1018.2 990.1
21 17.01 штиль 0 4000 м дым ясно +7.0 +3.5 78 +6 +6 1018.0 989.6
00 18.01 штиль 0 2000 м дымка ясно +5.0 +2.5 84 +4 +4 1017.9 989.3
03 18.01 штиль 0 2000 м дымка 6/5 300 м
[Sc Ac trans]
+5.5 +3.1 85 +5 +5 1019.3 990.8 +2.9
06 18.01 штиль 0 2000 м дым 10/10 300 м
[Sc As op]
+12.5 +4.9 60 +12 +12 1019.5 991.7
09 18.01 СВ 1 2000 м дым 9/6 300 м
[Sc Ac As]
+16.0 +5.7 50 +17 +19 1017.4 1000.0
12 18.01 штиль 0 2000 м дым 5/5 300 м
[Sc Ac trans]
+17.0 +8.2 56 +17 +17 1016.1 988.8 +18.1
15 18.01 штиль 0 2000 м дым 9/5 300 м
[Sc Ac trans]
+12.0 +5.6 65 +12 +12 1017.3 1000.0
18 18.01 штиль 0 2000 м дым 6/6 300 м
[Sc]
+12.0 +4.3 59 +12 +12 1017.7 989.9
21 18.01 штиль 0 2000 м дым 9/5 300 м
[Sc Ac trans]
+11.0 +4.3 63 +11 +11 1017.2 1000.0
00 19.01 штиль 0 2000 м дым 9/5 300 м
[Sc Ac trans]
+10.0 +5.7 75 +9 +9 1016.6 988.7
03 19.01 штиль 0 2000 м дым 5/5 300 м
[Sc]
+8.5 +3.9 73 +8 +8 1018.0 989.6 +5.3
06 19.01 СЗ 1 4000 м мгла 6/4 300 м
[Sc Ac trans]
+17.0 +4.3 43 +19 +23 1018.9 991.5
09 19.01 штиль 0 4000 м мгла 8/5 300 м
[Sc diur, vesp Ac trans]
+20.5 +5.4 37 +21 +23 комфорт 1015.9 1000.0
12 19.01 штиль 0 4000 м дым 9/5 1200 м
[Sc diur, vesp Ac trans]
+19.5 +10.3 55 +20 +20 1015.3 988.2 +21.3
15 19.01 штиль 0 4000 м дым 8/5 300 м
[Sc Ac As]
+15.0 +8.1 63 +15 +15 1016.2 1000.0
18 19.01 штиль 0 4000 м дым 8/5 300 м
[Sc Ac trans]
+12.0 +6.8 70 +12 +12 1017.3 989.5
21 19.01 штиль 0 4000 м дым 8/4 1200 м
[Sc Ac trans]
+10.5 +6.2 75 +10 +10 1017.4 1017.0
00 20.01 штиль 0 4000 м дым 8/5 300 м
[Sc Ac trans]
+10.0 +6.8 80 +9 +9 1016.6 988.7
03 20.01 штиль 0 2000 м дымка 9/5 1200 м
[Sc Ac As]
+10.0 +6.8 80 +9 +10 1017.7 989.8 +8.1
06 20.01 штиль 0 2000 м дым 9/5 1200 м
[Sc Ac As]
+13.0 +9.1 77 +13 +15 1018.5 990.7
09 20.01 штиль 0 2000 м дым 9/8 300 м
[Sc Ac As]
+16.5 +9.9 65 +16 +17 1016.4 1000.0
12 20.01 штиль 0 1000 м дождь 10/10 300 м
[Sc As op]
+13.5 +11.6 88 +13 +13 1018.2 990.5 +26.9 2
15 20.01 штиль 0 4000 м дым {дождь} 9/8 300 м
[Cb calv As op]
+12.0 +10.1 88 +11 +11 1015.5 1000.0 5
18 20.01 штиль 0 4000 м дым 9/8 300 м
[Sc As op]
+12.0 +10.1 88 +11 +11 1015.8 988.0
21 20.01 штиль 0 2000 м дымка 9/8 300 м
[Sc As op]
+11.0 +10.0 94 +10 +10 1016.6 1000.0
00 21.01 штиль 0 500 м дождь 10/8 1200 м
[Sc As op]
+11.0 +10.0 94 +10 +10 1015.4 987.5 2
03 21.01 ЮЗ 1 500 м туман {дождь} 10/10 300 м
[Sc As op]
+11.0 +10.0 94 +11 +11 1015.7 987.8 +9.5 0.2
06 21.01 штиль 0 500 м слаб. дождь {морось} 10/8 1200 м
[Sc As op]
+12.5 +11.6 94 +12 +12 1017.2 989.5 1
09 21.01 штиль 0 4000 м слаб. дождь 10/10 300 м
[Sc As op]
+13.5 +12.6 94 +13 +13 1013.2 1000.0 2
12 21.01 СВ 1 2000 м дождь 10/10 300 м
[Sc As op]
+12.5 +11.6 94 +12 +12 1011.9 984.3 +13.9 5
15 21.01 штиль 0 4000 м слаб. дождь 10/8 1200 м
[Sc As op]
+12.0 +11.1 94 +11 +11 1011.2 1011.0 0.8
18 21.01 штиль 0 2000 м слаб. дождь {морось} 10/10 300 м
[Sc As op]
+12.0 +10.5 91 +11 +11 1011.2 983.5 0.4
21 21.01 ЮВ 1 2000 м слаб. морось 10/10 300 м
[Sc As op]
+12.0 +11.1 94 +12 +12 1011.7 1000.0 0.6
00 22.01 ЮВ 1 2000 м дымка {дождь} 9/8 300 м
[Sc As op]
+10.5 +9.5 94 +10 +10 1012.2 984.3 2
03 22.01 штиль 0 4000 м дым 9/5 1200 м
[Sc As op]
+10.5 +9.5 94 +10 +10 1012.9 985.0 +9.7
06 22.01 штиль 0 4000 м слаб. дождь 10/10 300 м
[Sc As op]
+11.0 +10.0 94 +10 +10 1015.4 987.5 4
09 22.01 штиль 0 10 км {дождь} 10/8 1200 м
[Sc As op]
+12.0 +10.1 88 +11 +12 1013.8 1014.0 0.6
12 22.01 штиль 0 10 км 10/10 300 м
[Sc As op]
+11.5 +9.5 88 +11 +11 1014.2 986.5 +12.5
15 22.01 штиль 0 10 км {дождь} 10/10 300 м
[Sc As op]
+11.0 +9.0 87 +10 +10 1016.4 1000.0 0.2
18 22.01 штиль 0 4000 м дым 9/8 300 м
[Sc As op]
+11.0 +9.0 87 +10 +10 1017.4 989.5
21 22.01 штиль 0 4000 м дым 8/3 1200 м
[Sc Ac trans]
+10.0 +7.9 87 +9 +9 1018.1 1018.0
00 23.01 штиль 0 2000 м дымка 4/0
[Ac trans]
+8.0 +6.9 93 +7 +7 1017.9 989.7
03 23.01 штиль 0 4000 м дым ясно +6.5 +5.4 93 +5 +7 1019.2 990.7 +6.1
06 23.01 СЗ 1 10 км 1/1 1200 м
[Sc]
+13.5 +7.4 67 +14 +22 1019.8 992.1
09 23.01 СЗ 1 10 км ясно +17.0 +5.7 47 +19 +26 1018.1 1000.0
12 23.01 СЗ 1 10 км ясно +16.0 +6.9 55 +17 +18 1016.9 989.5 +17.5

 

Местоположение метеостанции Джелам (Пакистан): широта 32.93 долгота 73.72 высота над уровнем моря 234 м.

В архиве по умолчанию представлена погода в Джеламе за последнюю неделю. Архивные данные за месяц целиком и за предыдущие месяцы, начиная с января 2011 года, Вы можете получить, выбрав интересующий диапазон дат из раскрывающегося списка и нажав кнопку "Ввод!".


*Определитесь, кто Вы:
робот инопланетянин человек

Внимание! Время в таблицах - всемирное. Для получения местного времени необходимо прибавить поправку, которая равна 5 ч.

Смотрите также архив погоды в соседних городах и на ближайших метеорологических станциях:

Погода в Сиялкоте (Пакистан) (90 км)
Погода в Исламабаде (Пакистан) (96 км)
Погода в Джамму (Джамму и Кашмир, Индия) (108 км)
Погода в Катре (Джамму и Кашмир, Индия) (113 км)
Погода в Мерри (Пакистан) (115 км)
Погода в Саргодхе (Пакистан) (139 км)
Погода в Гульмарге (Джамму и Кашмир, Индия) (140 км)
Погода в Казигунде (Джамму и Кашмир, Индия) (146 км)
Погода в Какуле (Пакистан) (146 км)
Погода в Банихале (Джамму и Кашмир, Индия) (149 км)

Пояснения к столбцам:

Ветер - указаны скорость ветра в м/с - средняя за 10 мин, порывы в срок и между сроками (в фигурных скобках) и направление, откуда дует ветер: С - северный, СВ - северо-восточный, В - восточный, ЮВ - юго-восточный, Ю - южный, ЮЗ - юго-западный, З - западный, СЗ - северо-западный.
Видимость - горизонтальная дальность видимости в метрах или километрах. При видимости от 1 до 10 км при отсутствии осадков обычно наблюдается дымка, при ухудшении видимости до 1 км и менее - туман. В сухую погоду видимость может ухудшаться дымом, пылью или мглою.
Явления - указаны атмосферные явления, наблюдавшиеся в срок или в последний час перед сроком; фигурными скобками обозначены явления, наблюдавшиеся между сроками (за 1-3 часа до срока); квадратными скобками обозначены град или гололедные отложения с указанием их диаметра в мм.
Облачность - указаны через наклонную черту общая и нижняя облачность в баллах и высота нижней границы облаков в метрах; квадратными скобками обозначены формы облаков: Ci - перистые, Cs - перисто-слоистые, Cc - перисто-кучевые, Ac - высококучевые, As - высокослоистые, Sc - слоисто-кучевые, Ns - слоисто-дождевые, Cu - кучевые, Cb - кучево-дождевые. Подробнее классификацию облаков см. в Атласе облаков (PDF).
T - Температура воздуха - температура, измеренная на высоте 2 м над землей.
Td - Температура точки росы - температура, при понижении до которой содержащийся в воздухе водяной пар достигнет насыщения.
f - Относительная влажность воздуха - влажноcть воздуха, измеренная на высоте 2 м над землей.
Te - Эффективная температура - температура, которую ощущает одетый по сезону человек в тени. Характеристика душности погоды. При расчете учитывается влияние влажности воздуха и скорости ветра на теплоощущения человека.
Tes - Эффективная температура на солнце - температура, которую ощущает человек, с поправкой на солнечный нагрев. Характеристика знойности погоды. Зависит от высоты солнца над горизонтом, облачности и скорости ветра. Ночью, в пасмурную погоду, а также при ветре 12 м/с и более поправка равна нулю.
P - Атмосферное давление - приведенное к уровню моря атмосферное давление.
Po - Атмосферное давление - измеренное на уровне метеостанции атмосферное давление.
Tmin - Минимальная температура - минимум температуры воздуха на высоте 2 м над землей.
Tmax - Максимальная температура - максимум температуры воздуха на высоте 2 м над землей.
R - Количество осадков - Количество выпавших осадков за период времени, мм. При наведении курсора мыши на число - период времени, за который выпало указанное количество осадков.
R24 - Количество осадков - Количество выпавших осадков за 24 часа, мм.
S - Снежный покров - Высота снежного покрова, см. При наведении курсора мыши на число - состояние снежного покрова и степень покрытия местности в баллах.